Location: *
(32.3300°N, 34.8500°E)
Time: 11:08:46
(UTC+00:00)

Milstar 3 - Pass Details

Date: 22 October 2019
Orbit: 1111 x 5134 km, 28.2° (Epoch: 06 September)

Event Time Altitude Azimuth Distance (km) Brightness Sun altitude
Exits shadow 02:54:09 11° 250° (WSW) 3,028 4.5 -12.3°
Maximum altitude 03:00:41 59° 172° (S) 1,258 3.2 -10.9°
Drops below altitude 10° 03:07:45 10° 94° (E) 3,236 6.9 -9.5°
Sets 03:10:58 0° 90° (E) 4,467 8.2 -8.8°
